星链-3395 (STARLINK-3395 )

导读

STARLINK-3395是美国太空探索技术公司(SpaceX)于2022年1月19日发射的星链(Starlink)低轨互联网卫星,属于Starlink星座组网卫星之一,旨在为全球提供高速低延迟宽带互联网服务。星链卫星采用近地轨道部署,通过大规模组网实现全球覆盖,可满足偏远地区网络接入、应急通信等场景需求。该卫星与其他星链卫星共同构建低轨通信星座,推动全球卫星互联网服务的普及。

Basic Information
目录编号:
51130
目录名称:
STARLINK-3395
国际标识:
2022-005AC
轨道中心:
EARTH
卫星名称:
星链-3395
卫星全名:
星链-3395 (STARLINK-3395 )
卫星状态:
在轨 (已飞行1610 天)
发射日期:
2022-01-19 UTC
国别 :
美国 (US)
星等 :
--
Orbit Information
数据来源 国际轨道数据 AOE轨道数据
星历时间 2026-06-17T18:29:41+0800
10小时前
查看轨道信息
2026-06-15T03:00:00+0800
3天前
查看轨道信息
半长轴 6917.904km 6917.9km
偏心率 0.0001169 0.0001175
轨道倾角 53.159° 53.159°
近地点辐角 88.739° 94.575°
升交点赤经 211.239° 223.132°
平近点角 271.373° 287.267°
近地点 538.958km 538.95km
远地点 540.576km 540.576km
周期 95.438分钟 95.438分钟
每日圈数 15.088324 15.088336
Detailed Information
固有亮度:
5
最大亮度:
2.5
卫星平台:
Starlink v1.5
覆盖范围:
全球
运营商:
太空探索技术公司
运营商所在国:
美国
制造商(研发单位):
太空探索技术公司
制造商所在国:
美国
使用方式:
暂无
Satellite Introduction
星链(Starlink)计划是由太空探索技术公司(SpaceX)提出的一个巨型低轨卫星互联网星座项目,计划在2019年至2024年间在太空搭建由约1.2万颗卫星组成的“星链”网络,其中1584颗将部署在地球上空550千米处的近地轨道,并从2020年开始工作。该卫星仍在工作。
2D Orbit Map
3D Orbit Map
Orbit Altitude Analysis Chart
Orbit Inclination Analysis Chart
Orbit Comprehensive Analysis Chart
View Comprehensive Chart